This is the latest recevied weather packets stored in our database for station/object N5LSN. If no packets are shown the sender has not sent any weather packets the latest 10 day(s).
| Time | Temp. | Humidity | Pressure | Rain* | Wind** | Luminosity | Snow |
|---|---|---|---|---|---|---|---|
| 1777562516 | 16.67° C | 66% | 1018 hPa | 0 mm | - | 452 W/m² | - |
| 1777562214 | 16.11° C | 65% | 1018 hPa | 0 mm | - | 498 W/m² | - |
| 1777561911 | 16.11° C | 67% | 1018 hPa | 0 mm | - | 547 W/m² | - |
| 1777561603 | 16.67° C | 65% | 1017.9 hPa | 0 mm | - | 707 W/m² | - |
| 1777561299 | 16.11° C | 66% | 1018 hPa | 0 mm | - | 623 W/m² | - |
| 1777560999 | 15.56° C | 66% | 1018 hPa | 0 mm | - | 455 W/m² | - |
| 1777560694 | 15.56° C | 67% | 1017.8 hPa | 0 mm | - | 547 W/m² | - |
| 1777560392 | 16.11° C | 67% | 1017.9 hPa | 0 mm | - | 537 W/m² | - |
| 1777560090 | 16.11° C | 68% | 1018.1 hPa | 0 mm | - | 511 W/m² | - |
| 1777559786 | 16.11° C | 67% | 1018.2 hPa | 0 mm | - | 544 W/m² | - |
| 1777559483 | 16.11° C | 67% | 1018.2 hPa | 0 mm | - | 482 W/m² | - |
| 1777559180 | 15.56° C | 67% | 1018 hPa | 0 mm | - | 480 W/m² | - |
| 1777558880 | 15.56° C | 70% | 1018 hPa | 0 mm | - | 514 W/m² | - |
| 1777558576 | 15° C | 71% | 1017.7 hPa | 0 mm | - | 381 W/m² | - |
| 1777558271 | 14.44° C | 71% | 1018.1 hPa | 0 mm | - | 254 W/m² | - |
| 1777557968 | 15° C | 69% | 1018.1 hPa | 0 mm | - | 229 W/m² | - |
| 1777557664 | 14.44° C | 72% | 1017.9 hPa | 0 mm | - | 376 W/m² | - |
| 1777557360 | 15° C | 73% | 1017.7 hPa | 0 mm | - | 246 W/m² | - |
| 1777557057 | 15° C | 70% | 1017.8 hPa | 0 mm | - | 378 W/m² | - |
| 1777556752 | 14.44° C | 72% | 1017.6 hPa | 0 mm | - | 264 W/m² | - |
| 1777556449 | 15° C | 70% | 1017.7 hPa | 0 mm | - | 356 W/m² | - |
| 1777556149 | 15° C | 70% | 1017.7 hPa | 0 mm | - | 369 W/m² | - |
| 1777555845 | 14.44° C | 72% | 1017.5 hPa | 0 mm | - | 353 W/m² | - |
| 1777555540 | 14.44° C | 72% | 1017.5 hPa | 0 mm | - | 317 W/m² | - |
| 1777555237 | 14.44° C | 73% | 1017.5 hPa | 0 mm | - | 291 W/m² | - |
* Rain latest hour (hover to see other rain measurements)
** Current wind speed in m/s (hover to see current wind gust speed)